Location: Latina
(41.4670°N, 12.8670°E)
Time: 21:10:54
(UTC+02:00)

ISS - Pass Details

Date: 17 May 2021
Orbit: 417 x 422 km, 51.6° (Epoch: 22 June)

Event Time Altitude Azimuth Distance (km) Brightness Sun altitude
Rises 00:29:47 0° 298° (WNW) 2,367 0.5 -28.7°
Reaches altitude 10° 00:32:36 10° 323° (NW) 1,504 -0.2 -28.8°
Maximum altitude 00:34:34 15° 359° (N) 1,258 -0.5 -28.8°
Drops below altitude 10° 00:36:33 10° 35° (NE) 1,506 -0.4 -28.9°
Sets 00:39:23 0° 61° (ENE) 2,372 0.3 -28.9°
